Location: Gro� Glienicke
(52.4675°N, 13.1079°E)
Time: 03:42:58
(UTC+00:00)

Meteor 2-2 Rocket - Visible Passes

Search period start: 23 October 2020 00:00
Search period end: 02 November 2020 00:00
Orbit: 853 x 923 km, 81.2° (Epoch: 14 October)

Date Brightness Start Highest point End Pass type
(mag) Time Alt. Az. Time Alt. Az. Time Alt. Az.
23 Oct 6.9 04:51:22 10° NNE 04:54:30 14° NE 04:57:37 10° E visible
23 Oct 7.1 21:50:00 12° N 21:50:00 12° N 21:50:22 10° N visible
24 Oct 6.9 04:50:17 10° NNE 04:53:48 16° NE 04:57:18 10° E visible
24 Oct 7.1 21:49:09 11° N 21:49:09 11° N 21:49:28 10° N visible
25 Oct 6.8 04:49:15 10° NNE 04:53:06 17° NE 04:56:55 10° E visible
25 Oct 7.1 21:48:17 11° N 21:48:17 11° N 21:48:32 10° N visible
26 Oct 6.8 04:48:15 10° N 04:52:24 19° NE 04:56:30 10° E visible
26 Oct 7.2 21:47:26 11° N 21:47:26 11° N 21:47:37 10° N visible
27 Oct 6.8 04:47:16 10° N 04:51:40 20° NE 04:56:01 10° ESE visible
27 Oct 7.2 21:46:33 10° N 21:46:33 10° N 21:46:40 10° N visible
28 Oct 6.7 04:46:18 10° N 04:50:57 22° ENE 04:55:31 10° ESE visible
28 Oct 7.2 21:45:41 10° N 21:45:41 10° N 21:45:44 10° N visible
29 Oct 6.6 04:45:22 10° N 04:50:13 24° ENE 04:54:59 10° ESE visible
30 Oct 6.4 04:44:26 10° N 04:49:28 27° ENE 04:54:26 10° ESE visible
31 Oct 6.3 04:43:31 10° N 04:48:42 29° ENE 04:53:50 10° ESE visible
01 Nov 6.1 04:42:36 10° N 04:47:57 32° ENE 04:53:13 10° SE visible
